Meteopurmerend
purmerend
Purmerend - Baaienwijk



My webcam  My webcam


Onweer radar Meer informatie blitzortung!


Regen radar Meer informatie rain snow radar


Bezoek onze andere website:

CandyAppleRed WebdesignWebdesign Purmerend Candy Apple Red

MeteopurmerendBlog

Template documentation
and downloads



Het weer levert geen direct gevaar op.    Er zijn geen waarschuwingen afgegeven.

15 daagse weersverwachting Villeurbanne (FR)

  • Overzicht
  • Per uur
  • 15 dagen
  • Extra
  • Vergelijk
  • Kaarten
  • Dagkaart
  • Meer »
  • Info
  • Statistieken
  • Directe link
    Temp 6h Neerslag Wind  
 07:26     19:42    Daglengte: 12:16 Vandaag
20:00
24°
 
3
 07:27     19:40    Daglengte: 12:13 Morgen
02:00
18°
 
3
08:00
16°
 
3
14:00
26°
 
7
20:00
23°
 
4
 07:29     19:38    Daglengte: 12:09 Zondag 22 Sep
02:00
19°
2.0 mm
3
08:00
17°
8.9 mm
2
14:00
21°
28.0 mm
3
20:00
18°
53.7 mm
4
 07:30     19:36    Daglengte: 12:06 Maandag 23 Sep
02:00
15°
63.2 mm
1
08:00
14°
10.8 mm
1
14:00
20°
 
3
Locatie info
Region: Rhône-Alpes
Latitude: 45.7696°N
Longitude: 4.8791°E
173 masl
Postcode: 69100
Temp/Neerslag /Baro Onweer/Dauwpunt
    Temp Baro 1h Neerslag Dauwpunt Wind UV Bewolking  
 07:26     19:42    Daglengte: 12:16 Vandaag
17:00
27°
Voelt als: 26.7°
1018.3 hPa   11.5°
2
Windvlaag: 1.9 m/s
0%
18:00
27°
Voelt als: 26.8°
1017.8 hPa   11.8°
3
Windvlaag: 2.7 m/s
0%
19:00
26°
1017.6 hPa   11.9°
3
Windvlaag: 2.8 m/s
4%
20:00
24°
1017.9 hPa   11.9°
3
Windvlaag: 2.7 m/s
1%
21:00
22°
1018.2 hPa   12.4°
3
Windvlaag: 2.6 m/s
0%
22:00
21°
1018.4 hPa   13.1°
3
Windvlaag: 2.8 m/s
1%
23:00
20°
1018.6 hPa   13.2°
2
Windvlaag: 2.6 m/s
7%
 07:27     19:40    Daglengte: 12:13 Morgen
00:00
20°
1018.8 hPa   13.1°
3
Windvlaag: 1.7 m/s
7%
01:00
19°
1018.7 hPa   12.9°
3
Windvlaag: 1.9 m/s
6%
02:00
18°
1018.8 hPa   13.0°
3
Windvlaag: 1.9 m/s
5%
03:00
18°
1018.6 hPa   13.2°
3
Windvlaag: 2.4 m/s
2%
04:00
17°
1018.2 hPa   13.3°
3
Windvlaag: 2.7 m/s
2%
05:00
17°
1018.1 hPa   13.4°
3
Windvlaag: 2.5 m/s
1%
06:00
16°
1018.0 hPa   13.2°
3
Windvlaag: 2.4 m/s
1%
07:00
16°
1018.0 hPa   13.1°
3
Windvlaag: 2.3 m/s
4%
08:00
16°
1018.0 hPa   12.7°
3
Windvlaag: 1.6 m/s
8%
09:00
17°
1018.1 hPa   11.8°
3
Windvlaag: 2.1 m/s
18%
10:00
20°
1018.0 hPa   11.3°
4
Windvlaag: 3.3 m/s
9%
11:00
22°
1017.6 hPa   10.8°
4
Windvlaag: 4.7 m/s
20%
12:00
24°
1016.9 hPa   10.0°
5
Windvlaag: 5.9 m/s
39%
13:00
25°
1016.2 hPa   10.6°
6
Windvlaag: 5.6 m/s
36%
14:00
26°
Voelt als: 26.4°
1015.5 hPa   10.5°
7
Windvlaag: 5.5 m/s
40%
15:00
27°
Voelt als: 26.7°
1014.7 hPa   10.8°
7
Windvlaag: 5.7 m/s
63%
16:00
27°
Voelt als: 26.8°
1013.9 hPa   10.7°
6
Windvlaag: 5.3 m/s
80%
17:00
26°
1013.5 hPa   11.5°
6
Windvlaag: 5.6 m/s
77%
18:00
25°
1013.3 hPa
17%
11.9°
5
Windvlaag: 5.7 m/s
83%
19:00
24°
1013.3 hPa
19%
12.7°
5
Windvlaag: 6.2 m/s
91%
20:00
23°
1013.4 hPa
25%
12.4°
4
Windvlaag: 5.8 m/s
90%
21:00
22°
1013.6 hPa
35%
12.6°
4
Windvlaag: 5.3 m/s
91%
22:00
21°
1013.5 hPa
82%
12.8°
3
Windvlaag: 4 m/s
90%
23:00
20°
1013.4 hPa
82%
13.3°
3
Windvlaag: 3.3 m/s
85%
 07:29     19:38    Daglengte: 12:09 Zondag 22 Sep
00:00
20°
1013.2 hPa 0.3 mm
82%
13.9°
3
Windvlaag: 2 m/s
85%
01:00
19°
1013.0 hPa 0.4 mm
82%
14.3°
3
Windvlaag: 3 m/s
82%
02:00
19°
1012.6 hPa 1.3 mm
82%
14.6°
3
Windvlaag: 2.6 m/s
83%
03:00
18°
1012.0 hPa
82%
14.9°
3
Windvlaag: 3.6 m/s
81%
04:00
18°
1011.5 hPa 1.3 mm
82%
15.1°
3
Windvlaag: 3.5 m/s
85%
05:00
18°
1011.3 hPa 1.4 mm
82%
15.7°
2
Windvlaag: 2 m/s
87%
06:00
17°
1011.0 hPa 3.4 mm
82%
16.1°
2
Windvlaag: 1.1 m/s
85%
07:00
17°
1010.8 hPa 2.8 mm
82%
16.0°
2
Windvlaag: 1.2 m/s
84%
08:00
17°
1011.1 hPa
44%
16.2°
2
Windvlaag: 1.4 m/s
81%
09:00
18°
1011.0 hPa
75%
16.6°
2
Windvlaag: 1.7 m/s
74%
10:00
18°
1011.0 hPa 6.8 mm
76%
17.2°
2
Windvlaag: 2.3 m/s
85%
11:00
19°
1011.0 hPa 7.2 mm
35%
17.4°
3
Windvlaag: 3.2 m/s
87%
12:00
20°
1010.6 hPa 7.4 mm
22%
17.9°
3
Windvlaag: 3.2 m/s
94%
13:00
20°
1010.3 hPa 6.7 mm
22%
18.4°
3
Windvlaag: 2.2 m/s
99% warningclass
14:00
21°
1009.8 hPa
22%
18.5°
3
Windvlaag: 2.6 m/s
98%
15:00
21°
1009.1 hPa 6.8 mm
29%
18.7°
3
Windvlaag: 2.8 m/s
100%
16:00
21°
1008.6 hPa 6.8 mm
44%
18.9°
3
Windvlaag: 3.3 m/s
100%
17:00
21°
1008.1 hPa 7.2 mm
100%
18.1°
4
Windvlaag: 4.1 m/s
100%
18:00
20°
1008.6 hPa 10.6 mm
100%
18.3°
4
Windvlaag: 4.4 m/s
100%
19:00
19°
1009.5 hPa 10.2 mm
100%
17.2°
4
Windvlaag: 3.8 m/s
100% warningclass
20:00
18°
1010.1 hPa 12.1 mm
100%
15.1°
4
Windvlaag: 4 m/s
100%
21:00
17°
1011.5 hPa 11.8 mm
100%
14.6°
3
Windvlaag: -1.4 m/s
100%
22:00
17°
1012.7 hPa 9.3 mm
100%
14.8°
1
Windvlaag: -2.5 m/s
100%
23:00
16°
1013.3 hPa 8.5 mm
100%
14.8°
1
Windvlaag: -1.9 m/s
99%
 07:30     19:36    Daglengte: 12:06 Maandag 23 Sep
00:00
16°
1014.1 hPa 8.8 mm
95%
14.5°
2
Windvlaag: -1.9 m/s
95%
01:00
16°
1015.0 hPa 13.2 mm
44%
14.4°
2
Windvlaag: -0.9 m/s
94%
02:00
15°
1015.1 hPa 11.6 mm
28%
14.1°
1
Windvlaag: 1.3 m/s
95%
03:00
15°
1014.8 hPa 10.8 mm
32%
13.7°
1
Windvlaag: 1.7 m/s
69%
04:00
14°
1014.8 hPa
29%
13.5°
1
Windvlaag: 1.7 m/s
37%
05:00
14°
1015.0 hPa
29%
13.3°
2
Windvlaag: 1.5 m/s
35%
06:00
14°
1015.3 hPa
29%
13.2°
1
Windvlaag: 2.1 m/s
46%
07:00
14°
1015.5 hPa
27%
13.1°
1
Windvlaag: 1.6 m/s
43%
08:00
14°
1016.4 hPa
23%
12.9°
1
Windvlaag: 1.2 m/s
32%
09:00
15°
1016.2 hPa
21%
13.0°
1
Windvlaag: 7.4 m/s
18%
10:00
16°
1016.3 hPa
26%
12.7°
2
Windvlaag: 5.3 m/s
22%
11:00
17°
1016.3 hPa
29%
12.2°
2
Windvlaag: 4 m/s
26%
12:00
18°
1016.3 hPa
25%
11.4°
2
Windvlaag: 3.9 m/s
28%
13:00
19°
1016.0 hPa
24%
10.4°
2
Windvlaag: 4 m/s
39%
14:00
20°
1015.8 hPa
21%
9.1°
3
Windvlaag: 0.7 m/s
32%
15:00
19°
1016.0 hPa 52.4 mm
100%
9.1°
3
Windvlaag: 5.4 m/s
58%
16:00
19°
1015.9 hPa 52.4 mm
100%
9.2°
2
Windvlaag: 5.7 m/s
48%
Temp/Neerslag /Baro Onweer/Dauwpunt
    Temp Baro Neerslag Dauwpunt Wind Bewolking  
 07:26     19:42    Daglengte: 12:16 Vandaag
17:00
27°
Voelt als: 26.7°
1018.3 hPa   11.5°
2
0%
20:00
24°
1017.9 hPa   11.9°
3
1%
23:00
20°
1018.6 hPa   13.2°
2
7%
 07:27     19:40    Daglengte: 12:13 Morgen
02:00
18°
1018.8 hPa   13.0°
3
5%
05:00
17°
1018.1 hPa   13.4°
3
1%
08:00
16°
1018.0 hPa   12.7°
3
8%
11:00
22°
1017.6 hPa   10.8°
4
20%
14:00
26°
Voelt als: 26.4°
1015.5 hPa   10.5°
7
40%
17:00
26°
1013.5 hPa   11.5°
6
77%
20:00
23°
1013.4 hPa   12.4°
4
90%
23:00
20°
1013.4 hPa   13.3°
3
85%
 07:29     19:38    Daglengte: 12:09 Zondag 22 Sep
02:00
19°
1012.6 hPa 2.0 mm 14.6°
3
83%
05:00
18°
1011.3 hPa 2.7 mm 15.7°
2
87%
08:00
17°
1011.1 hPa 6.2 mm 16.2°
2
81%
11:00
19°
1011.0 hPa 13.9 mm 17.4°
3
87%
14:00
21°
1009.8 hPa 14.1 mm 18.5°
3
98%
17:00
21°
1008.1 hPa 20.7 mm 18.1°
4
100%
20:00
18°
1010.1 hPa 33.0 mm 15.1°
4
100%
23:00
16°
1013.3 hPa 29.7 mm 14.8°
1
99%
 07:30     19:36    Daglengte: 12:06 Maandag 23 Sep
02:00
15°
1015.1 hPa 33.5 mm 14.1°
1
95%
05:00
14°
1015.0 hPa 10.8 mm 13.3°
2
35%
08:00
14°
1016.4 hPa   12.9°
1
32%
11:00
17°
1016.3 hPa   12.2°
2
26%
14:00
20°
1015.8 hPa   9.1°
3
32%
17:00
18°
1015.7 hPa 157.3 mm 9.3°
2
35%
20:00
17°
1015.6 hPa 157.3 mm 9.4°
2
10%
23:00
15°
1016.3 hPa 59.3 mm 9.5°
1
15%
 07:31     19:34    Daglengte: 12:03 Dinsdag 24 Sep
02:00
14°
1016.4 hPa 59.3 mm 9.4°
0
19%
05:00
13°
1015.6 hPa 59.3 mm 9.6°
1
14%
08:00
11°
1014.8 hPa 59.3 mm 9.5°
1
10%
11:00
16°
1013.4 hPa 59.3 mm 10.6°
2
50%
14:00
20°
1012.0 hPa 59.3 mm 10.5°
2
90%
17:00
19°
1011.5 hPa 59.3 mm 11.4°
3
80%
20:00
18°
1011.1 hPa 60.2 mm 12.1°
4
70%
23:00
16°
1011.6 hPa 62.9 mm 12.6°
3
38%
 07:32     19:32    Daglengte: 12:00 Woensdag 25 Sep
02:00
15°
1012.1 hPa 63.8 mm 12.8°
3
6%
05:00
13°
1012.5 hPa 64.7 mm 12.2°
2
48%
08:00
12°
1012.8 hPa 65.6 mm 11.5°
1
91%
11:00
17°
1012.9 hPa 66.1 mm 11.8°
1
79%
14:00
21°
1012.9 hPa 66.5 mm 10.1°
2
67%
17:00
20°
1012.6 hPa 66.7 mm 11.2°
2
80%
20:00
19°
1012.6 hPa 67.0 mm 12.0°
2
92%
23:00
18°
1014.2 hPa 67.1 mm 12.1°
2
84%
 07:34     19:30    Daglengte: 11:56 Donderdag 26 Sep
02:00
16°
1015.6 hPa 67.1 mm 12.0°
1
77%
05:00
15°
1016.3 hPa 67.1 mm 12.2°
1
56%
08:00
13°
1017.1 hPa 67.1 mm 12.3°
0
36%
11:00
17°
1017.2 hPa 67.1 mm 12.7°
1
47%
14:00
21°
1017.2 hPa 67.1 mm 11.7°
1
58%
17:00
20°
1016.9 hPa 67.1 mm 12.0°
2
30%
20:00
18°
1016.9 hPa 67.1 mm 12.0°
2
1%
23:00
16°
1017.4 hPa 67.1 mm 12.0°
2
4%
 07:35     19:28    Daglengte: 11:53 Vrijdag 27 Sep
02:00
14°
1017.8 hPa 67.1 mm 11.8°
2
6%
05:00
14°
1018.0 hPa 67.1 mm 11.7°
1
13%
08:00
13°
1018.3 hPa 67.1 mm 11.6°
1
20%
11:00
19°
1017.8 hPa 67.1 mm 13.0°
2
49%
14:00
24°
1017.3 hPa 134.2 mm 12.8°
4
78%
20:00
21°
1016.2 hPa 134.2 mm 13.1°
5
50%
 07:36     19:27    Daglengte: 11:51 Zaterdag 28 Sep
02:00
17°
1018.2 hPa 134.2 mm 14.8°
4
17%
08:00
16°
1018.0 hPa 134.2 mm 14.4°
2
86%
14:00
23°
1017.8 hPa 134.2 mm 15.6°
4
80%
20:00
19°
1017.5 hPa 134.9 mm 16.6°
1
61%
 07:37     19:25    Daglengte: 11:48 Zondag 29 Sep
02:00
17°
1017.8 hPa 144.1 mm 16.7°
0
91%
08:00
17°
1017.4 hPa 149.0 mm 16.1°
1
86%
14:00
22°
1017.4 hPa 151.3 mm 16.8°
2
41%
20:00
20°
1015.1 hPa 152.2 mm 16.6°
2
90%
 07:39     19:23    Daglengte: 11:44 Maandag 30 Sep
02:00
18°
1014.8 hPa 153.8 mm 16.2°
4
90%
08:00
12°
1022.0 hPa 153.9 mm 8.9°
2
0%
14:00
19°
1015.4 hPa 1.3 mm 12.4°
1
50%
20:00
14°
1015.7 hPa 1.1 mm 11.4°
0
46%
 07:40     19:21    Daglengte: 11:41 Dinsdag 01 Okt
02:00
12°
1017.1 hPa 0.7 mm 10.0°
0
47%
08:00
11°
1017.1 hPa 0.7 mm 9.2°
1
50%
14:00
18°
1016.8 hPa 1.1 mm 11.8°
2
53%
20:00
14°
1017.3 hPa 0.9 mm 11.0°
1
43%
 07:41     19:19    Daglengte: 11:38 Woensdag 02 Okt
02:00
11°
1018.4 hPa 0.8 mm 9.7°
1
42%
08:00
11°
1018.4 hPa 1.9 mm 9.2°
1
43%
14:00
17°
1017.9 hPa 1.3 mm 11.5°
2
59%
20:00
13°
1018.8 hPa 1.1 mm 11.0°
1
55%
 07:42     19:17    Daglengte: 11:35 Donderdag 03 Okt
02:00
11°
1020.1 hPa 0.5 mm 9.4°
1
41%
08:00
10°
1020.0 hPa 0.2 mm 8.5°
1
39%
14:00
17°
1018.9 hPa 0.6 mm 10.5°
2
44%
20:00
13°
1018.9 hPa 0.7 mm 9.7°
1
44%
 07:44     19:15    Daglengte: 11:31 Vrijdag 04 Okt
02:00
10°
1019.7 hPa 0.7 mm 8.1°
1
30%
08:00
Voelt als: 9.0°
1019.2 hPa 0.5 mm 7.1°
1
32%
14:00
18°
1017.9 hPa 0.8 mm 10.1°
1
37%
20:00
13°
1017.5 hPa 0.8 mm 10.1°
1
36%
 07:45     19:13    Daglengte: 11:28 Zaterdag 05 Okt
02:00
10°
1018.0 hPa 0.5 mm 8.6°
0
36%
08:00
Voelt als: 9.4°
1017.1 hPa 0.5 mm 7.7°
1
36%
14:00
18°
1015.9 hPa 0.5 mm 10.0°
1
40%
  CAPE Lifted Index Hail Supercell Tornado SRH 3km CL BTM PRES CL TOP PRES Swiss DWD icon SMHI TS
 07:26     19:42    Daglengte: 12:16 Vandaag
17:00 0 J/kg 0.2 K 0 % 0 % 0 % 0 m²/s² 0 0 4.7 0
18:00 0 J/kg 0.2 K 0 % 0 % 0 % 0 m²/s² 0 0 4.82 0
19:00 28 J/kg -0.1 K 0 % 0 % 0 % 0 m²/s² 0 0 4.28 0
20:00 0 J/kg 0.3 K 0 % 0 % 0 % 0 m²/s² 0 0 5.04 0
21:00 0 J/kg 0.1 K 0 % 0 % 0 % 0 m²/s² 0 0 4.36 0
22:00 0 J/kg -0.3 K 0 % 0 % 0 % 0 m²/s² 0 0 4.08 0
23:00 0 J/kg -0.2 K 0 % 0 % 0 % 0 m²/s² 0 0 3.76 0
 07:27     19:40    Daglengte: 12:13 Morgen
00:00 0 J/kg 0.6 K 0 % 0 % 0 % 0 m²/s² 0 0 4.65 1
01:00 0 J/kg 0.6 K 0 % 0 % 0 % 0 m²/s² 0 0 4.98 1
02:00 0 J/kg 0.7 K 0 % 0 % 0 % 0 m²/s² 0 0 5.29 1
03:00 0 J/kg 1.3 K 0 % 0 % 0 % 0 m²/s² 0 0 5.56 0
04:00 0 J/kg 2.6 K 0 % 0 % 0 % 0 m²/s² 0 0 6.98 2
05:00 0 J/kg 2.3 K 0 % 0 % 0 % 0 m²/s² 0 0 6.35 0
06:00 0 J/kg 3.8 K 0 % 0 % 0 % 0 m²/s² 0 0 7.07 1
07:00 0 J/kg 4.1 K 0 % 0 % 0 % 0 m²/s² 0 0 6.65 0
08:00 0 J/kg 4.1 K 0 % 0 % 0 % 0 m²/s² 0 0 6.56 2
09:00 0 J/kg 3.3 K 0 % 0 % 0 % 0 m²/s² 0 0 5.76 1
10:00 0 J/kg 3.0 K 0 % 0 % 0 % 0 m²/s² 0 0 5.25 1
11:00 0 J/kg 2.7 K 0 % 0 % 0 % 0 m²/s² 0 0 4.29 0
12:00 0 J/kg 2.2 K 0 % 0 % 0 % 0 m²/s² 0 0 3.79 0
13:00 0 J/kg 2.3 K 0 % 0 % 0 % 0 m²/s² 0 0 3.89 3
14:00 0 J/kg 1.6 K 0 % 0 % 0 % 0 m²/s² 0 0 2.92 3
15:00 0 J/kg 1.0 K 0 % 0 % 0 % 0 m²/s² 0 0 1.99 3
16:00 0 J/kg 0.8 K 0 % 0 % 0 % 0 m²/s² 0 0 1.82 3
17:00 0 J/kg 0.6 K 0 % 0 % 0 % 0 m²/s² 0 0 1.17 3
18:00 1 J/kg 1.0 K 0 % 0 % 0 % 0 m²/s² 0 0 1.54 61
19:00 0 J/kg 2.0 K 0 % 0 % 0 % 0 m²/s² 0 0 2.21 61
20:00 0 J/kg 1.5 K 0 % 0 % 0 % 0 m²/s² 0 0 1.5 61
21:00 0 J/kg 0.5 K 0 % 0 % 0 % 0 m²/s² 0 0 0.5 63
22:00 0 J/kg 1.1 K 0 % 0 % 0 % 0 m²/s² 0 0 1.97 61
23:00 0 J/kg 1.2 K 0 % 0 % 0 % 0 m²/s² 0 0 2.25 61
 07:29     19:38    Daglengte: 12:09 Zondag 22 Sep
00:00 0 J/kg -0.1 K 0 % 0 % 0 % 0 m²/s² 0 0 1.07 80
01:00 0 J/kg -0.8 K 0 % 0 % 0 % 0 m²/s² 0 0 -0.5 80
02:00 0 J/kg -1.5 K 0 % 0 % 0 % 0 m²/s² 0 0 -0.6 61
03:00 18 J/kg 0.7 K 0 % 0 % 0 % 0 m²/s² 0 0 0.97 63
04:00 123 J/kg -3.2 K 0 % 0 % 0 % 0 m²/s² 0 0 -2.99 61
05:00 77 J/kg -1.7 K 0 % 0 % 0 % 0 m²/s² 0 0 -1.61 61
06:00 5 J/kg -0.3 K 0 % 0 % 0 % 0 m²/s² 0 0 0.06 61
07:00 3 J/kg -1.4 K 0 % 0 % 0 % 0 m²/s² 0 0 -0.95 61
08:00 0 J/kg -0.5 K 0 % 0 % 0 % 0 m²/s² 0 0 -0.5 3
09:00 0 J/kg 0.4 K 0 % 0 % 0 % 0 m²/s² 0 0 0.43 3
10:00 0 J/kg 0.6 K 0 % 0 % 0 % 0 m²/s² 0 0 1.14 3
11:00 0 J/kg -2.3 K 0 % 0 % 0 % 0 m²/s² 0 0 -1.34 3
12:00 182 J/kg -2.0 K 0 % 0 % 0 % 0 m²/s² 0 0 -1.34 3
13:00 620 J/kg -2.8 K 0 % 0 % 0 % 0 m²/s² 0 0 -2.17 3
14:00 665 J/kg -2.7 K 0 % 0 % 0 % 0 m²/s² 0 0 -1.62 3
15:00 615 J/kg -2.8 K 0 % 0 % 0 % 0 m²/s² 0 0 -1.87 3
16:00 163 J/kg -1.2 K 0 % 0 % 0 % 0 m²/s² 0 0 -0.54 3
17:00 311 J/kg -1.5 K 0 % 0 % 0 % 0 m²/s² 0 0 -0.42 61
18:00 88 J/kg 1.2 K 0 % 0 % 0 % 0 m²/s² 0 0 1.2 63
19:00 2 J/kg 1.8 K 0 % 0 % 0 % 0 m²/s² 0 0 2.43 95
20:00 0 J/kg 2.7 K 0 % 0 % 0 % 0 m²/s² 0 0 2.7 63
21:00 20 J/kg 4.1 K 0 % 0 % 0 % 0 m²/s² 0 0 4.1 63
22:00 1 J/kg 3.8 K 0 % 0 % 0 % 0 m²/s² 0 0 4.28 61
23:00 39 J/kg 3.1 K 0 % 0 % 0 % 0 m²/s² 0 0 4.45 61
 07:30     19:36    Daglengte: 12:06 Maandag 23 Sep
00:00 52 J/kg 3.0 K 0 % 0 % 0 % 0 m²/s² 0 0 5.13 61
01:00 56 J/kg 3.2 K 0 % 0 % 0 % 0 m²/s² 0 0 6.05 3
02:00 53 J/kg 2.5 K 0 % 0 % 0 % 0 m²/s² 0 0 6.1 3
03:00 80 J/kg 2.2 K 0 % 0 % 0 % 0 m²/s² 0 0 6.61 3
04:00 101 J/kg 0.9 K 0 % 0 % 0 % 0 m²/s² 0 0 5.52 1
05:00 126 J/kg -0.2 K 0 % 0 % 0 % 0 m²/s² 0 0 4.06 1
06:00 126 J/kg -0.6 K 0 % 0 % 0 % 0 m²/s² 0 0 2.61 3
07:00 67 J/kg 0.3 K 0 % 0 % 0 % 0 m²/s² 0 0 3.48 3
08:00 51 J/kg 2.1 K 0 % 0 % 0 % 0 m²/s² 0 0 5.94 3
09:00 44 J/kg 3.7 K 0 % 0 % 0 % 0 m²/s² 0 0 8.65 0
10:00 63 J/kg 4.8 K 0 % 0 % 0 % 0 m²/s² 0 0 10.2 2
11:00 68 J/kg 5.9 K 0 % 0 % 0 % 0 m²/s² 0 0 11.78 2
12:00 61 J/kg 6.9 K 0 % 0 % 0 % 0 m²/s² 0 0 12.78 2
13:00 13 J/kg 7.9 K 0 % 0 % 0 % 0 m²/s² 0 0 14.35 3
14:00 7 J/kg 8.5 K 0 % 0 % 0 % 0 m²/s² 0 0 14.95 1
15:00 0 J/kg 8.2 K 0 % 0 % 0 % 0 m²/s² 0 0 14.71
16:00 0 J/kg 7.8 K 0 % 0 % 0 % 0 m²/s² 0 0 13.77
Temp Baro Wind Neerslag
  EWN Forecast EWN WRFDA DWD ICON FMI HIRLAM MET Norway GFS
 07:26     19:42    Daglengte: 12:16 Vandaag
17:00 26.8° 1018.3 hPa 1.8 m/s 0.0 mm 27.6° 1016.8 hPa 3.5 m/s 0.0 mm 24.9° 1017.9 hPa 1.7 m/s -2.0 mm 27.4° 1019.1 hPa 2.2 m/s 0.0 mm 27.0° 1018.4 hPa 1.7 m/s 0.0 mm 26.2° 1018.8 hPa 1.1 m/s
20:00 23.5° 1017.9 hPa 3.1 m/s 0.0 mm 24.8° 1017.0 hPa 5.2 m/s 0.0 mm 21.4° 1017.8 hPa 1.7 m/s 0.0 mm 24.8° 1019.2 hPa 2.3 m/s 0.0 mm 23.4° 1017.9 hPa 3.1 m/s 0.0 mm 22.4° 1019.2 hPa 2.4 m/s
23:00 20.2° 1018.6 hPa 2.4 m/s 0.0 mm 21.2° 1018.4 hPa 5.0 m/s 0.0 mm 18.5° 1018.4 hPa 0.9 m/s 0.0 mm 20.3° 1019.8 hPa 1.7 m/s 0.0 mm 20.9° 1018.5 hPa 3.7 m/s 0.0 mm 19.7° 1019.8 hPa 2.2 m/s
 07:27     19:40    Daglengte: 12:13 Morgen
02:00 18.3° 1018.8 hPa 2.8 m/s 0.0 mm 19.0° 1018.6 hPa 6.0 m/s 0.0 mm 16.4° 1018.3 hPa 1.0 m/s 0.0 mm 18.3° 1019.9 hPa 2.5 m/s 0.0 mm 19.5° 1018.8 hPa 4.2 m/s 0.0 mm 18.0° 1019.7 hPa 2.8 m/s
05:00 16.8° 1018.1 hPa 2.8 m/s 0.0 mm 17.3° 1017.8 hPa 3.8 m/s 0.0 mm 15.4° 1017.8 hPa 0.9 m/s 0.0 mm 16.9° 1019.2 hPa 2.7 m/s 0.0 mm 17.2° 1018.2 hPa 3.4 m/s 0.0 mm 16.8° 1018.7 hPa 2.7 m/s
08:00 15.8° 1018.0 hPa 2.9 m/s 0.0 mm 16.6° 1017.7 hPa 3.6 m/s 0.0 mm 14.7° 1017.2 hPa 0.9 m/s 0.0 mm 15.3° 1019.6 hPa 2.5 m/s 0.0 mm 16.3° 1018.3 hPa 3.1 m/s 0.0 mm 15.9° 1018.0 hPa 2.8 m/s
11:00 22.0° 1017.6 hPa 4.5 m/s 0.0 mm 22.3° 1018.3 hPa 4.2 m/s 0.0 mm 21.5° 1016.8 hPa 2.9 m/s 0.0 mm 21.9° 1018.6 hPa 4.5 m/s 0.0 mm 22.8° 1017.5 hPa 4.6 m/s 0.0 mm 21.6° 1017.9 hPa 5.0 m/s
14:00 26.4° 1015.5 hPa 6.6 m/s 0.0 mm 26.9° 1015.3 hPa 5.4 m/s 0.0 mm 26.4° 1014.3 hPa 3.4 m/s 0.0 mm 25.6° 1016.5 hPa 6.6 m/s 0.0 mm 27.1° 1015.7 hPa 7.3 m/s 0.0 mm 25.9° 1015.3 hPa 6.2 m/s
17:00 26.5° 1013.5 hPa 6.0 m/s 0.0 mm 26.1° 1013.9 hPa 6.2 m/s 0.0 mm 23.1° 1013.0 hPa 4.2 m/s 0.0 mm 27.2° 1013.8 hPa 6.2 m/s 0.0 mm 26.9° 1013.5 hPa 6.4 m/s 0.0 mm 27.0° 1014.3 hPa 5.0 m/s
20:00 22.5° 1013.4 hPa 4.4 m/s 0.0 mm 22.5° 1013.7 hPa 5.5 m/s 0.0 mm 18.4° 1013.4 hPa 2.3 m/s 1.3 mm 24.3° 1013.2 hPa 2.2 m/s 0.0 mm 23.1° 1013.2 hPa 4.6 m/s 0.0 mm 22.2° 1014.3 hPa 4.8 m/s
23:00 20.2° 1013.4 hPa 3.2 m/s 0.0 mm 19.2° 1014.1 hPa 2.4 m/s 0.2 mm 17.6° 1013.2 hPa 0.6 m/s 6.9 mm 22.6° 1012.9 hPa 1.9 m/s 0.0 mm 20.7° 1013.3 hPa 4.6 m/s 0.0 mm 20.0° 1014.8 hPa 3.6 m/s
 07:29     19:38    Daglengte: 12:09 Zondag 22 Sep
02:00 18.5° 1012.6 hPa 3.2 m/s 2.0 mm 19.0° 1012.1 hPa 1.9 m/s 1.5 mm 17.3° 1012.5 hPa 0.6 m/s 3.4 mm 19.9° 1011.7 hPa 4.0 m/s 0.0 mm 18.5° 1012.8 hPa 3.5 m/s 0.7 mm 18.7° 1014.2 hPa 3.3 m/s
05:00 17.7° 1011.3 hPa 1.9 m/s 2.7 mm 20.1° 1011.5 hPa 3.5 m/s 13.7 mm 17.1° 1011.3 hPa 0.4 m/s 6.0 mm 18.0° 1011.5 hPa 2.3 m/s 0.0 mm 17.5° 1011.0 hPa 1.8 m/s 1.5 mm 17.9° 1013.0 hPa 3.0 m/s
08:00 17.5° 1011.1 hPa 1.8 m/s 6.2 mm 17.9° 1011.7 hPa 1.6 m/s 40.2 mm 17.4° 1011.0 hPa 0.6 m/s 2.2 mm 16.7° 1011.9 hPa 1.5 m/s 0.0 mm 17.5° 1010.4 hPa 2.1 m/s 5.7 mm 17.7° 1012.7 hPa 2.4 m/s
11:00 19.1° 1011.0 hPa 3.0 m/s 13.9 mm 19.3° 1011.1 hPa 2.9 m/s 87.5 mm 21.1° 1010.0 hPa 3.4 m/s 0.0 mm 18.8° 1011.0 hPa 2.7 m/s 3.8 mm 21.4° 1011.8 hPa 2.9 m/s
14:00 20.7° 1009.8 hPa 3.2 m/s 14.1 mm 23.4° 1010.0 hPa 5.7 m/s 94.8 mm 25.0° 1007.4 hPa 5.4 m/s 0.0 mm 20.0° 1010.3 hPa 2.8 m/s 4.3 mm 27.2° 1010.6 hPa 5.2 m/s
17:00 20.6° 1008.1 hPa 3.6 m/s 20.7 mm 22.6° 1007.1 hPa 7.6 m/s 95.1 mm 20.4° 1006.8 hPa 5.1 m/s 1.7 mm 20.4° 1008.5 hPa 2.4 m/s 2.3 mm 25.5° 1010.1 hPa 6.1 m/s
20:00 17.6° 1010.1 hPa 3.9 m/s 33.0 mm 17.1° 1011.8 hPa 3.5 m/s 128.0 mm 18.9° 1008.7 hPa 2.2 m/s 16.8 mm 17.1° 1010.4 hPa 4.9 m/s 22.7 mm 16.3° 1012.2 hPa 3.0 m/s
23:00 16.3° 1013.3 hPa 1.5 m/s 29.7 mm 16.8° 1014.7 hPa 2.5 m/s 150.9 mm 17.9° 1012.0 hPa 1.2 m/s 5.6 mm 16.4° 1013.3 hPa 1.3 m/s 11.5 mm 16.2° 1015.8 hPa 1.5 m/s
 07:30     19:36    Daglengte: 12:06 Maandag 23 Sep
02:00 15.1° 1015.1 hPa 1.2 m/s 33.5 mm 15.7° 1015.2 hPa 2.6 m/s 154.8 mm 16.7° 1013.0 hPa 0.7 m/s 0.2 mm 15.0° 1015.2 hPa 1.0 m/s 1.9 mm 15.2° 1017.1 hPa 2.0 m/s
05:00 13.9° 1015.0 hPa 1.7 m/s 10.8 mm 15.2° 1014.3 hPa 1.9 m/s 157.0 mm 15.7° 1013.6 hPa 0.9 m/s 0.0 mm 13.5° 1015.1 hPa 1.6 m/s 0.3 mm 15.3° 1017.1 hPa 1.2 m/s
08:00 13.6° 1016.4 hPa 1.1 m/s 0.0 mm 15.3° 1015.6 hPa 2.6 m/s 157.1 mm 15.2° 1015.0 hPa 1.2 m/s 0.0 mm 13.1° 1016.5 hPa 0.9 m/s 0.0 mm 14.4° 1017.6 hPa 0.9 m/s
11:00 17.2° 1016.3 hPa 2.2 m/s 0.0 mm 17.7° 1016.1 hPa 2.5 m/s 157.3 mm 18.1° 1016.3 hPa 2.4 m/s 0.0 mm 16.5° 1016.4 hPa 1.9 m/s 18.0° 1018.1 hPa 2.4 m/s
14:00 20.1° 1015.8 hPa 2.5 m/s 0.0 mm 20.4° 1015.3 hPa 2.4 m/s 157.3 mm 20.4° 1015.3 hPa 1.7 m/s 0.0 mm 19.9° 1016.3 hPa 2.8 m/s 20.6° 1016.7 hPa 2.7 m/s
17:00 18.4° 1015.7 hPa 2.3 m/s 157.3 mm 21.1° 1013.8 hPa 1.7 m/s 157.3 mm 17.9° 1016.0 hPa 2.4 m/s 20.9° 1015.5 hPa 2.2 m/s
20:00 16.5° 1015.6 hPa 1.9 m/s 157.3 mm 20.4° 1014.2 hPa 1.6 m/s 157.3 mm 15.9° 1015.8 hPa 2.0 m/s 17.8° 1016.4 hPa 1.6 m/s
23:00 14.9° 1016.3 hPa 0.9 m/s 59.3 mm 14.8° 1016.1 hPa 0.9 m/s 16.1° 1017.9 hPa 0.4 m/s 59.3 mm
 07:31     19:34    Daglengte: 12:03 Dinsdag 24 Sep
02:00 14.4° 1016.4 hPa 0.4 m/s 59.3 mm 14.3° 1016.3 hPa 0.4 m/s 15.2° 1017.1 hPa 0.5 m/s 59.3 mm
05:00 12.8° 1015.6 hPa 0.9 m/s 59.3 mm 12.7° 1015.5 hPa 0.9 m/s 14.2° 1016.3 hPa 1.0 m/s 59.3 mm
08:00 11.2° 1014.8 hPa 1.4 m/s 59.3 mm 11.0° 1014.7 hPa 1.4 m/s 13.7° 1015.3 hPa 0.8 m/s 59.3 mm
11:00 15.5° 1013.4 hPa 1.7 m/s 59.3 mm 15.3° 1013.2 hPa 1.6 m/s 17.6° 1014.7 hPa 1.9 m/s 59.3 mm
14:00 19.5° 1012.0 hPa 1.9 m/s 59.3 mm 19.7° 1011.8 hPa 1.9 m/s 17.6° 1013.9 hPa 1.7 m/s 59.3 mm
17:00 19.0° 1011.5 hPa 2.7 m/s 59.3 mm 18.7° 1011.3 hPa 2.8 m/s 22.1° 1012.8 hPa 2.1 m/s 59.3 mm
20:00 17.8° 1011.1 hPa 3.6 m/s 60.2 mm 17.7° 1010.9 hPa 3.7 m/s 18.9° 1013.0 hPa 2.1 m/s 60.2 mm
23:00 16.4° 1011.6 hPa 3.4 m/s 62.9 mm 16.2° 1011.4 hPa 3.5 m/s 17.7° 1014.4 hPa 1.6 m/s 62.9 mm
 07:32     19:32    Daglengte: 12:00 Woensdag 25 Sep
02:00 15.0° 1012.1 hPa 3.3 m/s 63.8 mm 14.8° 1011.9 hPa 3.4 m/s 17.0° 1014.5 hPa 1.9 m/s 63.8 mm
05:00 13.4° 1012.5 hPa 2.0 m/s 64.7 mm 13.1° 1012.3 hPa 2.0 m/s 16.5° 1014.2 hPa 1.9 m/s 64.7 mm
08:00 11.8° 1012.8 hPa 0.7 m/s 65.6 mm 11.4° 1012.7 hPa 0.6 m/s 16.6° 1014.2 hPa 1.4 m/s 65.6 mm
11:00 16.6° 1012.9 hPa 1.4 m/s 66.1 mm 16.4° 1012.7 hPa 1.4 m/s 19.7° 1014.9 hPa 1.1 m/s 66.1 mm
14:00 21.3° 1012.9 hPa 2.3 m/s 66.5 mm 21.3° 1012.7 hPa 2.2 m/s 21.5° 1014.5 hPa 3.1 m/s 66.5 mm
17:00 20.2° 1012.6 hPa 2.1 m/s 66.7 mm 20.0° 1012.5 hPa 2.2 m/s 22.0° 1013.6 hPa 1.5 m/s 66.7 mm
20:00 18.7° 1012.6 hPa 2.2 m/s 67.0 mm 18.7° 1012.4 hPa 2.1 m/s 18.6° 1015.0 hPa 3.0 m/s 67.0 mm
23:00 17.6° 1014.2 hPa 1.7 m/s 67.1 mm 17.6° 1013.9 hPa 1.6 m/s 17.2° 1017.0 hPa 1.9 m/s 67.1 mm
 07:34     19:30    Daglengte: 11:56 Donderdag 26 Sep
02:00 16.5° 1015.6 hPa 1.2 m/s 67.1 mm 16.6° 1015.4 hPa 1.2 m/s 15.2° 1017.4 hPa 1.8 m/s 67.1 mm
05:00 14.9° 1016.3 hPa 0.8 m/s 67.1 mm 15.0° 1016.2 hPa 0.8 m/s 14.1° 1017.9 hPa 0.8 m/s 67.1 mm
08:00 13.3° 1017.1 hPa 0.4 m/s 67.1 mm 13.3° 1017.0 hPa 0.4 m/s 13.6° 1017.7 hPa 0.2 m/s 67.1 mm
11:00 17.3° 1017.2 hPa 0.9 m/s 67.1 mm 17.2° 1017.1 hPa 1.0 m/s 18.4° 1017.3 hPa 0.9 m/s 67.1 mm
14:00 21.2° 1017.2 hPa 1.5 m/s 67.1 mm 21.1° 1017.3 hPa 1.5 m/s 22.4° 1016.3 hPa 0.9 m/s 67.1 mm
17:00 19.6° 1016.9 hPa 1.7 m/s 67.1 mm 19.2° 1017.1 hPa 1.6 m/s 23.0° 1015.2 hPa 1.7 m/s 67.1 mm
20:00 17.6° 1016.9 hPa 1.7 m/s 67.1 mm 17.4° 1016.9 hPa 1.8 m/s 19.4° 1016.9 hPa 1.1 m/s 67.1 mm
23:00 16.0° 1017.4 hPa 1.7 m/s 67.1 mm 15.8° 1017.3 hPa 1.8 m/s 18.4° 1018.2 hPa 0.4 m/s 67.1 mm
 07:35     19:28    Daglengte: 11:53 Vrijdag 27 Sep
02:00 14.5° 1017.8 hPa 1.7 m/s 67.1 mm 14.2° 1017.8 hPa 1.8 m/s 17.4° 1018.1 hPa 0.9 m/s 67.1 mm
05:00 13.9° 1018.0 hPa 1.4 m/s 67.1 mm 13.6° 1018.0 hPa 1.4 m/s 16.9° 1018.0 hPa 1.5 m/s 67.1 mm
08:00 13.4° 1018.3 hPa 1.0 m/s 67.1 mm 13.1° 1018.3 hPa 1.0 m/s 16.5° 1018.2 hPa 1.5 m/s 67.1 mm
11:00 18.6° 1017.8 hPa 2.4 m/s 67.1 mm 18.6° 1017.8 hPa 2.4 m/s 18.8° 1018.6 hPa 2.0 m/s 67.1 mm
14:00 23.8° 1017.3 hPa 3.6 m/s 67.1 mm 24.1° 1017.2 hPa 3.8 m/s 21.0° 1018.1 hPa 0.9 m/s 67.1 mm
20:00 20.9° 1016.2 hPa 4.7 m/s 67.1 mm 21.0° 1016.0 hPa 5.0 m/s 20.0° 1018.7 hPa 1.6 m/s 67.1 mm
 07:36     19:27    Daglengte: 11:51 Zaterdag 28 Sep
02:00 17.1° 1018.2 hPa 3.5 m/s 67.1 mm 17.1° 1018.0 hPa 3.8 m/s 17.0° 1020.5 hPa 0.4 m/s 67.1 mm
08:00 16.4° 1018.0 hPa 2.2 m/s 67.1 mm 16.5° 1017.8 hPa 2.4 m/s 15.9° 1020.5 hPa 0.4 m/s 67.1 mm
14:00 23.2° 1017.8 hPa 3.5 m/s 67.1 mm 23.2° 1017.8 hPa 3.7 m/s 23.1° 1018.3 hPa 1.4 m/s 67.1 mm
20:00 19.3° 1017.5 hPa 0.8 m/s 67.8 mm 19.2° 1017.6 hPa 0.7 m/s 20.2° 1016.9 hPa 1.4 m/s 67.8 mm
 07:37     19:25    Daglengte: 11:48 Zondag 29 Sep
02:00 17.1° 1017.8 hPa 0.3 m/s 73.8 mm 17.1° 1017.8 hPa 0.2 m/s 17.2° 1017.4 hPa 1.2 m/s 73.8 mm
08:00 16.8° 1017.4 hPa 1.1 m/s 74.9 mm 16.8° 1017.4 hPa 1.1 m/s 16.4° 1017.1 hPa 0.8 m/s 74.9 mm
14:00 21.6° 1017.4 hPa 1.8 m/s 75.7 mm 21.7° 1017.4 hPa 1.8 m/s 20.6° 1017.3 hPa 1.9 m/s 75.7 mm
20:00 19.7° 1015.1 hPa 2.0 m/s 76.2 mm 19.9° 1014.9 hPa 2.0 m/s 17.7° 1017.8 hPa 2.3 m/s 76.2 mm
 07:39     19:23    Daglengte: 11:44 Maandag 30 Sep
02:00 17.7° 1014.8 hPa 4.3 m/s 76.9 mm 18.0° 1014.3 hPa 4.5 m/s 14.2° 1020.0 hPa 1.9 m/s 76.9 mm
08:00 12.3° 1022.0 hPa 2.1 m/s 76.9 mm 12.3° 1022.0 hPa 2.1 m/s 76.9 mm
14:00 18.6° 1015.4 hPa 1.4 m/s 1.3 mm
20:00 14.1° 1015.7 hPa 0.4 m/s 1.1 mm
 07:40     19:21    Daglengte: 11:41 Dinsdag 01 Okt
02:00 11.9° 1017.1 hPa 0.5 m/s 0.7 mm
08:00 10.8° 1017.1 hPa 0.5 m/s 0.7 mm
14:00 17.9° 1016.8 hPa 1.5 m/s 1.1 mm
20:00 13.7° 1017.3 hPa 0.9 m/s 0.9 mm
 07:41     19:19    Daglengte: 11:38 Woensdag 02 Okt
02:00 11.4° 1018.4 hPa 0.8 m/s 0.8 mm
08:00 10.6° 1018.4 hPa 1.0 m/s 1.9 mm
14:00 17.0° 1017.9 hPa 1.7 m/s 1.3 mm
20:00 13.3° 1018.8 hPa 1.4 m/s 1.1 mm
 07:42     19:17    Daglengte: 11:35 Donderdag 03 Okt
02:00 10.8° 1020.1 hPa 0.9 m/s 0.5 mm
08:00 9.8° 1020.0 hPa 0.9 m/s 0.2 mm
14:00 17.3° 1018.9 hPa 1.6 m/s 0.6 mm
20:00 13.0° 1018.9 hPa 0.6 m/s 0.7 mm
 07:44     19:15    Daglengte: 11:31 Vrijdag 04 Okt
02:00 10.4° 1019.7 hPa 0.5 m/s 0.7 mm
08:00 9.0° 1019.2 hPa 0.6 m/s 0.5 mm
14:00 17.9° 1017.9 hPa 0.9 m/s 0.8 mm
20:00 13.0° 1017.5 hPa 0.6 m/s 0.8 mm
 07:45     19:13    Daglengte: 11:28 Zaterdag 05 Okt
02:00 10.3° 1018.0 hPa 0.5 m/s 0.5 mm
08:00 9.4° 1017.1 hPa 0.5 m/s 0.5 mm
14:00 17.5° 1015.9 hPa 1.0 m/s 0.5 mm
FMI Hirlam - 7.5 km EWN WRFDA - 12 km DWD ICON - 7 km GFS - 25 km Basiskaart






























































Updatetijd (Europe/Amsterdam) Resolutie Lengte Stap
FMI Hirlam 13:00, 19:00, 01:00, 07:00 7.5 km 49h 1h
EWN WRFDA 15:45, 21:45, 03:45, 09:45 12 km 73h 1h
DWD ICON 11:45, 17:45, 23:45, 05:45 7 km 75h 1h
GFS 14:30, 20:30, 02:30, 08:30 25 km 237h 3h
30+ mm
25-30 mm
20-25 mm
15-20 mm
10-15 mm
6-10 mm
4-6 mm
2-4 mm
1-2 mm
0.5-1 mm
0.2-0.5 mm
0.1-0.2 mm
30+ mm
25-30 mm
20-25 mm
15-20 mm
10-15 mm
6-10 mm
4-6 mm
2-4 mm
1-2 mm
0.5-1 mm
0.2-0.5 mm
0.1-0.2 mm
Sneeuwval
Natte sneeuw
Hagel
Vorst
30+ mm
25-30 mm
20-25 mm
15-20 mm
10-15 mm
6-10 mm
4-6 mm
2-4 mm
1-2 mm
0.5-1 mm
0.2-0.5 mm
0.1-0.2 mm
Sneeuwval
Natte sneeuw
Hagel
Vorst
Onweer
50 mm
40 mm
30 mm
26 mm
22 mm
18 mm
14 mm
10 mm
9 mm
8 mm
7 mm
6 mm
5 mm
4.5 mm
4 mm
3.5 mm
3 mm
2.5 mm
2 mm
1.5 mm
1 mm
0.8 mm
0.6 mm
0.4 mm
0.2 mm
0.05 mm
35°
30°
25°
20°
15°
10°
-5°
-10°
-15°
-20°
-25°
-30°
-35°
33> m/s
29 m/s
25 m/s
21 m/s
17 m/s
14 m/s
11 m/s
8 m/s
5 m/s
3 m/s
0 m/s
2600 J/kg
2400 J/kg
2200 J/kg
2000 J/kg
1800 J/kg
1600 J/kg
1400 J/kg
1200 J/kg
1000 J/kg
800 J/kg
600 J/kg
400 J/kg
200 J/kg
70 dBZ
65 dBZ
60 dBZ
55 dBZ
50 dBZ
45 dBZ
40 dBZ
35 dBZ
30 dBZ
25 dBZ
20 dBZ
15 dBZ
10 dBZ
5 dBZ
-1 K
-2 K
-3 K
-4 K
-5 K
-6 K
-7 K
-8 K
-9 K
950 m²/s²
900 m²/s²
850 m²/s²
800 m²/s²
750 m²/s²
700 m²/s²
650 m²/s²
600 m²/s²
550 m²/s²
500 m²/s²
450 m²/s²
400 m²/s²
350 m²/s²
300 m²/s²
250 m²/s²
200 m²/s²
150 m²/s²
100 m²/s²
46 m/s
44 m/s
42 m/s
40 m/s
38 m/s
36 m/s
34 m/s
32 m/s
30 m/s
28 m/s
26 m/s
24 m/s
22 m/s
20 m/s
16 m/s
12 m/s
8 m/s
4 m/s
30 m/s
28 m/s
26 m/s
24 m/s
22 m/s
20 m/s
18 m/s
16 m/s
14 m/s
12 m/s
10 m/s
8 m/s
6 m/s
4 m/s
2 m/s
3.0
2.8
2.6
2.4
2.2
2.0
1.8
1.6
1.4
1.2
1.0
0.8
0.6
0.4
0.2
15
14
13
12
11
10
9
8
7
6
5
4
3
2
1
90%
80%
70%
60%
50%
40%
30%
20%
10%
42
40
38
36
34
32
30
28
26
24
22
20
18
16
14
12
90+ cm
80-90 cm
70-80 cm
60-70 cm
50-60 cm
40-50 cm
30-40 cm
20-30 cm
10-20 cm
1-10 cm
Sneeuwval
Natte sneeuw
Regen
>120 mm
115 mm
110 mm
105 mm
100 mm
95 mm
90 mm
85 mm
80 mm
75 mm
70 mm
65 mm
60 mm
55 mm
50 mm
45 mm
45 mm
40 mm
35 mm
30 mm
25 mm
20 mm
15 mm
10 mm
5 mm
0.1 mm
960 hPa
880 hPa
800 hPa
720 hPa
640 hPa
560 hPa
584 gpdm
568 gpdm
552 gpdm
536 gpdm
520 gpdm
504 gpdm
488 gpdm
Extreem zwaar Noodweer Kans op onweer
15% 15% 5% 50% 15%

Dag




Kaart






35°
30°
25°
20°
15°
10°
-5°
-10°
-15°
-20°
-25°
-30°
-35°
33> m/s
29 m/s
25 m/s
21 m/s
17 m/s
14 m/s
11 m/s
8 m/s
5 m/s
3 m/s
0 m/s
Extreem zwaar Noodweer Kans op onweer
15% 15% 5% 50% 15%
>120 mm
115 mm
110 mm
105 mm
100 mm
95 mm
90 mm
85 mm
80 mm
75 mm
70 mm
65 mm
60 mm
55 mm
50 mm
45 mm
45 mm
40 mm
35 mm
30 mm
25 mm
20 mm
15 mm
10 mm
5 mm
0.1 mm
Onweer risico kaarten - De groene en gele kleur geeft de kans op onweer aan binnen 40 km van een punt. Oranje, rood en violet hebben hetzelfde niveau zoals je het ziet op estofex.org waaronder ook de kans op hagel en supercells.

dBZ - dBZ staat voor decibel ten opzichte van Z.

Cape - Convective available potential energy (CAPE), is de totale hoeveelheid energie die een luchtpakketje nodig heeft om zover mogelijk te stijgen in de atmosfeer.

K Index - K-Index wordt berekend door de Vertical Totals (VT) en het verschil tussen de 850 hPa temperatuur en de 700 hPa dauwpuntsdepressie (Tdd 700) bij elkaar op te tellen.

TT Index - Convectie index wordt gebruikt voor het voorspellen van zware buien of onweer.

WRF - The Weather Research and Forecasting (WRF) is een volgende generatie mesoscale numeriek weersvoorspelling systeem ontworpen om zowel de operationele planning als het atmosferisch onderzoek te dienen. WRF is a cooperatie tussen het National Center for Atmospheric Research (NCAR), National Centers for Environmental Prediction (NCEP), Forecast Systems Laboratory (FSL), Air Force Weather Agency (AFWA), Naval Research Laboratory, University of Oklahoma, en de Federal Aviation Administration (FAA). Deze software draait op onze server.

WRFDA - Een meer geavanceerde versie van WRF

Arome - Het 2.5 km A